Year,Month,Day,Hour,Minute,Value (Times are PST for temperature in C)
2011,07,23,00,00,14.10
2011,07,23,00,01,14.10
2011,07,23,00,02,14.10
2011,07,23,00,03,14.10
2011,07,23,00,04,14.10
2011,07,23,00,05,14.10
2011,07,23,00,06,14.10
2011,07,23,00,07,14.10
2011,07,23,00,08,14.10
2011,07,23,00,09,14.10
2011,07,23,00,10,14.10
2011,07,23,00,11,14.10
2011,07,23,00,12,14.10
2011,07,23,00,13,14.10
2011,07,23,00,14,14.10
2011,07,23,00,15,14.10
2011,07,23,00,16,14.10
2011,07,23,00,17,14.10
2011,07,23,00,18,14.10
2011,07,23,00,19,14.10
2011,07,23,00,20,14.10
2011,07,23,00,21,14.10
2011,07,23,00,22,14.10
2011,07,23,00,23,14.10
2011,07,23,00,24,14.10
2011,07,23,00,25,14.10
2011,07,23,00,26,14.10
2011,07,23,00,27,14.10
2011,07,23,00,28,14.10
2011,07,23,00,29,14.10
2011,07,23,00,30,14.10
2011,07,23,00,31,14.00
2011,07,23,00,32,14.00
2011,07,23,00,33,14.00
2011,07,23,00,34,14.00
2011,07,23,00,35,13.90
2011,07,23,00,36,13.90
2011,07,23,00,37,13.90
2011,07,23,00,38,13.90
2011,07,23,00,39,13.90
2011,07,23,00,40,13.90
2011,07,23,00,41,13.80
2011,07,23,00,42,13.80
2011,07,23,00,43,13.80
2011,07,23,00,44,13.80
2011,07,23,00,45,13.80
2011,07,23,00,46,13.80
2011,07,23,00,47,13.80
2011,07,23,00,48,13.80
2011,07,23,00,49,13.80
2011,07,23,00,50,13.80
2011,07,23,00,51,13.70
2011,07,23,00,52,13.70
2011,07,23,00,53,13.70
2011,07,23,00,54,13.70
2011,07,23,00,55,13.70
2011,07,23,00,56,13.70
2011,07,23,00,57,13.70
2011,07,23,00,58,13.70
2011,07,23,00,59,13.70
2011,07,23,01,00,13.70
2011,07,23,01,01,13.60
2011,07,23,01,02,13.60
2011,07,23,01,03,13.60
2011,07,23,01,04,13.60
2011,07,23,01,05,13.60
2011,07,23,01,06,13.60
2011,07,23,01,07,13.60
2011,07,23,01,08,13.60
2011,07,23,01,09,13.60
2011,07,23,01,10,13.60
2011,07,23,01,11,13.50
2011,07,23,01,12,13.50
2011,07,23,01,13,13.50
2011,07,23,01,14,13.50
2011,07,23,01,15,13.50
2011,07,23,01,16,13.50
2011,07,23,01,17,13.40
2011,07,23,01,18,13.40
2011,07,23,01,19,13.40
2011,07,23,01,20,13.40
2011,07,23,01,21,13.40
2011,07,23,01,22,13.40
2011,07,23,01,23,13.40
2011,07,23,01,24,13.40
2011,07,23,01,25,13.40
2011,07,23,01,26,13.40
2011,07,23,01,27,13.40
2011,07,23,01,28,13.40
2011,07,23,01,29,13.40
2011,07,23,01,30,13.30
2011,07,23,01,31,13.30
2011,07,23,01,32,13.30
2011,07,23,01,33,13.30
2011,07,23,01,34,13.30
2011,07,23,01,35,13.30
2011,07,23,01,36,13.30
2011,07,23,01,37,13.30
2011,07,23,01,38,13.30
2011,07,23,01,39,13.30
2011,07,23,01,40,13.20
2011,07,23,01,41,13.20
2011,07,23,01,42,13.20
2011,07,23,01,43,13.20
2011,07,23,01,44,13.20
2011,07,23,01,45,13.20
2011,07,23,01,46,13.20
2011,07,23,01,47,13.10
2011,07,23,01,48,13.10
2011,07,23,01,49,13.10
2011,07,23,01,50,13.10
2011,07,23,01,51,13.10
2011,07,23,01,52,13.10
2011,07,23,01,53,13.10
2011,07,23,01,54,13.10
2011,07,23,01,55,13.10
2011,07,23,01,56,13.10
2011,07,23,01,57,13.00
2011,07,23,01,58,13.00
2011,07,23,01,59,13.00
2011,07,23,02,00,13.00
2011,07,23,02,01,13.00
2011,07,23,02,02,13.00
2011,07,23,02,03,13.00
2011,07,23,02,04,13.10
2011,07,23,02,05,13.10
2011,07,23,02,06,13.00
2011,07,23,02,07,13.10
2011,07,23,02,08,13.10
2011,07,23,02,09,13.10
2011,07,23,02,10,13.10
2011,07,23,02,11,13.10
2011,07,23,02,12,13.10
2011,07,23,02,13,13.00
2011,07,23,02,14,13.00
2011,07,23,02,15,13.00
2011,07,23,02,16,13.00
2011,07,23,02,17,13.00
2011,07,23,02,18,13.00
2011,07,23,02,19,13.00
2011,07,23,02,20,13.00
2011,07,23,02,21,13.00
2011,07,23,02,22,12.90
2011,07,23,02,23,12.90
2011,07,23,02,24,12.90
2011,07,23,02,25,12.90
2011,07,23,02,26,12.90
2011,07,23,02,27,12.90
2011,07,23,02,28,12.90
2011,07,23,02,29,12.90
2011,07,23,02,30,12.80
2011,07,23,02,31,12.80
2011,07,23,02,32,12.80
2011,07,23,02,33,12.80
2011,07,23,02,34,12.80
2011,07,23,02,35,12.80
2011,07,23,02,36,12.80
2011,07,23,02,37,12.80
2011,07,23,02,38,12.80
2011,07,23,02,39,12.80
2011,07,23,02,40,12.80
2011,07,23,02,41,12.80
2011,07,23,02,42,12.80
2011,07,23,02,43,12.80
2011,07,23,02,44,12.80
2011,07,23,02,45,12.70
2011,07,23,02,46,12.70
2011,07,23,02,47,12.80
2011,07,23,02,48,12.70
2011,07,23,02,49,12.80
2011,07,23,02,50,12.80
2011,07,23,02,51,12.80
2011,07,23,02,52,12.80
2011,07,23,02,53,12.80
2011,07,23,02,54,12.80
2011,07,23,02,55,12.70
2011,07,23,02,56,12.70
2011,07,23,02,57,12.70
2011,07,23,02,58,12.70
2011,07,23,02,59,12.70
2011,07,23,03,00,12.70
2011,07,23,03,01,12.70
2011,07,23,03,02,12.70
2011,07,23,03,03,12.70
2011,07,23,03,04,12.70
2011,07,23,03,05,12.70
2011,07,23,03,06,12.70
2011,07,23,03,07,12.70
2011,07,23,03,08,12.70
2011,07,23,03,09,12.70
2011,07,23,03,10,12.70
2011,07,23,03,11,12.70
2011,07,23,03,12,12.70
2011,07,23,03,13,12.80
2011,07,23,03,14,12.80
2011,07,23,03,15,12.80
2011,07,23,03,16,12.80
2011,07,23,03,17,12.80
2011,07,23,03,18,12.80
2011,07,23,03,19,12.80
2011,07,23,03,20,12.90
2011,07,23,03,21,12.90
2011,07,23,03,22,12.90
2011,07,23,03,23,12.90
2011,07,23,03,24,12.90
2011,07,23,03,25,12.90
2011,07,23,03,26,12.90
2011,07,23,03,27,12.90
2011,07,23,03,28,12.90
2011,07,23,03,29,12.90
2011,07,23,03,30,12.90
2011,07,23,03,31,12.90
2011,07,23,03,32,12.90
2011,07,23,03,33,12.90
2011,07,23,03,34,12.90
2011,07,23,03,35,12.90
2011,07,23,03,36,12.90
2011,07,23,03,37,12.90
2011,07,23,03,38,12.90
2011,07,23,03,39,12.90
2011,07,23,03,40,12.90
2011,07,23,03,41,12.90
2011,07,23,03,42,12.90
2011,07,23,03,43,12.90
2011,07,23,03,44,12.90
2011,07,23,03,45,12.90
2011,07,23,03,46,12.90
2011,07,23,03,47,12.90
2011,07,23,03,48,12.90
2011,07,23,03,49,12.90
2011,07,23,03,50,12.90
2011,07,23,03,51,12.90
2011,07,23,03,52,12.90
2011,07,23,03,53,12.90
2011,07,23,03,54,12.90
2011,07,23,03,55,12.90
2011,07,23,03,56,12.90
2011,07,23,03,57,12.90
2011,07,23,03,58,12.90
2011,07,23,03,59,12.90
2011,07,23,04,00,12.90
2011,07,23,04,01,12.90
2011,07,23,04,02,12.90
2011,07,23,04,03,12.90
2011,07,23,04,04,12.90
2011,07,23,04,05,12.90
2011,07,23,04,06,12.90
2011,07,23,04,07,12.90
2011,07,23,04,08,12.90
2011,07,23,04,09,13.00
2011,07,23,04,10,13.00
2011,07,23,04,11,13.10
2011,07,23,04,12,13.10
2011,07,23,04,13,13.10
2011,07,23,04,14,13.10
2011,07,23,04,15,13.10
2011,07,23,04,16,13.20
2011,07,23,04,17,13.20
2011,07,23,04,18,13.20
2011,07,23,04,19,13.20
2011,07,23,04,20,13.20
2011,07,23,04,21,13.30
2011,07,23,04,22,13.30
2011,07,23,04,23,13.30
2011,07,23,04,24,13.30
2011,07,23,04,25,13.30
2011,07,23,04,26,13.40
2011,07,23,04,27,13.40
2011,07,23,04,28,13.40
2011,07,23,04,29,13.50
2011,07,23,04,30,13.50
2011,07,23,04,31,13.50
2011,07,23,04,32,13.60
2011,07,23,04,33,13.60
2011,07,23,04,34,13.60
2011,07,23,04,35,13.60
2011,07,23,04,36,13.60
2011,07,23,04,37,13.60
2011,07,23,04,38,13.60
2011,07,23,04,39,13.60
2011,07,23,04,40,13.60
2011,07,23,04,41,13.60
2011,07,23,04,42,13.60
2011,07,23,04,43,13.60
2011,07,23,04,44,13.70
2011,07,23,04,45,13.70
2011,07,23,04,46,13.70
2011,07,23,04,47,13.70
2011,07,23,04,48,13.70
2011,07,23,04,49,13.80
2011,07,23,04,50,13.80
2011,07,23,04,51,13.80
2011,07,23,04,52,13.80
2011,07,23,04,53,13.80
2011,07,23,04,54,13.80
2011,07,23,04,55,13.80
2011,07,23,04,56,13.80
2011,07,23,04,57,13.80
2011,07,23,04,58,13.90
2011,07,23,04,59,13.90
2011,07,23,05,00,13.90
2011,07,23,05,01,13.90
2011,07,23,05,02,13.90
2011,07,23,05,03,13.90
2011,07,23,05,04,13.90
2011,07,23,05,05,13.90
2011,07,23,05,06,13.90
2011,07,23,05,07,13.90
2011,07,23,05,08,13.90
2011,07,23,05,09,13.90
2011,07,23,05,10,13.90
2011,07,23,05,11,13.90
2011,07,23,05,12,13.90
2011,07,23,05,13,13.90
2011,07,23,05,14,13.90
2011,07,23,05,15,13.90
2011,07,23,05,16,13.90
2011,07,23,05,17,13.90
2011,07,23,05,18,13.90
2011,07,23,05,19,13.90
2011,07,23,05,20,13.90
2011,07,23,05,21,13.90
2011,07,23,05,22,13.90
2011,07,23,05,23,13.90
2011,07,23,05,24,13.90
2011,07,23,05,25,14.00
2011,07,23,05,26,13.90
2011,07,23,05,27,13.90
2011,07,23,05,28,13.90
2011,07,23,05,29,14.00
2011,07,23,05,30,13.90
2011,07,23,05,31,13.90
2011,07,23,05,32,13.90
2011,07,23,05,33,13.90
2011,07,23,05,34,13.90
2011,07,23,05,35,13.90
2011,07,23,05,36,13.90
2011,07,23,05,37,13.90
2011,07,23,05,38,13.90
2011,07,23,05,39,13.90
2011,07,23,05,40,13.90
2011,07,23,05,41,13.90
2011,07,23,05,42,13.90
2011,07,23,05,43,13.90
2011,07,23,05,44,13.90
2011,07,23,05,45,13.90
2011,07,23,05,46,13.90
2011,07,23,05,47,13.90
2011,07,23,05,48,13.90
2011,07,23,05,49,13.90
2011,07,23,05,50,13.90
2011,07,23,05,51,13.90
2011,07,23,05,52,13.80
2011,07,23,05,53,13.80
2011,07,23,05,54,13.80
2011,07,23,05,55,13.80
2011,07,23,05,56,13.80
2011,07,23,05,57,13.80
2011,07,23,05,58,13.90
2011,07,23,05,59,13.90
2011,07,23,06,00,13.90
2011,07,23,06,01,13.90
2011,07,23,06,02,13.90
2011,07,23,06,03,13.90
2011,07,23,06,04,13.90
2011,07,23,06,05,13.90
2011,07,23,06,06,13.90
2011,07,23,06,07,13.90
2011,07,23,06,08,13.90
2011,07,23,06,09,13.90
2011,07,23,06,10,13.90
2011,07,23,06,11,13.90
2011,07,23,06,12,13.90
2011,07,23,06,13,13.90
2011,07,23,06,14,13.90
2011,07,23,06,15,13.80
2011,07,23,06,16,13.80
2011,07,23,06,17,13.80
2011,07,23,06,18,13.80
2011,07,23,06,19,13.80
2011,07,23,06,20,13.80
2011,07,23,06,21,13.80
2011,07,23,06,22,13.80
2011,07,23,06,23,13.80
2011,07,23,06,24,13.90
2011,07,23,06,25,13.90
2011,07,23,06,26,13.90
2011,07,23,06,27,13.90
2011,07,23,06,28,13.90
2011,07,23,06,29,13.90
2011,07,23,06,30,13.90
2011,07,23,06,31,13.90
2011,07,23,06,32,13.90
2011,07,23,06,33,13.90
2011,07,23,06,34,13.90
2011,07,23,06,35,13.90
2011,07,23,06,36,13.90
2011,07,23,06,37,13.90
2011,07,23,06,38,14.00
2011,07,23,06,39,14.00
2011,07,23,06,40,14.00
2011,07,23,06,41,14.10
2011,07,23,06,42,14.10
2011,07,23,06,43,14.10
2011,07,23,06,44,14.10
2011,07,23,06,45,14.20
2011,07,23,06,46,14.20
2011,07,23,06,47,14.30
2011,07,23,06,48,14.30
2011,07,23,06,49,14.30
2011,07,23,06,50,14.40
2011,07,23,06,51,14.40
2011,07,23,06,52,14.40
2011,07,23,06,53,14.50
2011,07,23,06,54,14.60
2011,07,23,06,55,14.60
2011,07,23,06,56,14.70
2011,07,23,06,57,14.70
2011,07,23,06,58,14.70
2011,07,23,06,59,14.80
2011,07,23,07,00,14.80
2011,07,23,07,01,14.80
2011,07,23,07,02,14.80
2011,07,23,07,03,14.90
2011,07,23,07,04,14.90
2011,07,23,07,05,14.90
2011,07,23,07,06,15.00
2011,07,23,07,07,15.00
2011,07,23,07,08,15.00
2011,07,23,07,09,15.10
2011,07,23,07,10,15.10
2011,07,23,07,11,15.10
2011,07,23,07,12,15.20
2011,07,23,07,13,15.20
2011,07,23,07,14,15.20
2011,07,23,07,15,15.20
2011,07,23,07,16,15.20
2011,07,23,07,17,15.30
2011,07,23,07,18,15.30
2011,07,23,07,19,15.30
2011,07,23,07,20,15.30
2011,07,23,07,21,15.30
2011,07,23,07,22,15.30
2011,07,23,07,23,15.30
2011,07,23,07,24,15.30
2011,07,23,07,25,15.30
2011,07,23,07,26,15.30
2011,07,23,07,27,15.30
2011,07,23,07,28,15.30
2011,07,23,07,29,15.30
2011,07,23,07,30,15.30
2011,07,23,07,31,15.30
2011,07,23,07,32,15.30
2011,07,23,07,33,15.30
2011,07,23,07,34,15.30
2011,07,23,07,35,15.30
2011,07,23,07,36,15.30
2011,07,23,07,37,15.30
2011,07,23,07,38,15.30
2011,07,23,07,39,15.30
2011,07,23,07,40,15.30
2011,07,23,07,41,15.30
2011,07,23,07,42,15.30
2011,07,23,07,43,15.30
2011,07,23,07,44,15.30
2011,07,23,07,45,15.30
2011,07,23,07,46,15.30
2011,07,23,07,47,15.30
2011,07,23,07,48,15.30
2011,07,23,07,49,15.30
2011,07,23,07,50,15.30
2011,07,23,07,51,15.30
2011,07,23,07,52,15.30
2011,07,23,07,53,15.30
2011,07,23,07,54,15.30
2011,07,23,07,55,15.30
2011,07,23,07,56,15.30
2011,07,23,07,57,15.30
2011,07,23,07,58,15.30
2011,07,23,07,59,15.30
2011,07,23,08,00,15.30
2011,07,23,08,01,15.30
2011,07,23,08,02,15.30
2011,07,23,08,03,15.30
2011,07,23,08,04,15.30
2011,07,23,08,05,15.20
2011,07,23,08,06,15.20
2011,07,23,08,07,15.20
2011,07,23,08,08,15.20
2011,07,23,08,09,15.20
2011,07,23,08,10,15.30
2011,07,23,08,11,15.30
2011,07,23,08,12,15.30
2011,07,23,08,13,15.30
2011,07,23,08,14,15.30
2011,07,23,08,15,15.40
2011,07,23,08,16,15.40
2011,07,23,08,17,15.40
2011,07,23,08,18,15.50
2011,07,23,08,19,15.50
2011,07,23,08,20,15.50
2011,07,23,08,21,15.50
2011,07,23,08,22,15.50
2011,07,23,08,23,15.50
2011,07,23,08,24,15.50
2011,07,23,08,25,15.50
2011,07,23,08,26,15.50
2011,07,23,08,27,15.60
2011,07,23,08,28,15.60
2011,07,23,08,29,15.60
2011,07,23,08,30,15.60
2011,07,23,08,31,15.60
2011,07,23,08,32,15.60
2011,07,23,08,33,15.60
2011,07,23,08,34,15.70
2011,07,23,08,35,15.70
2011,07,23,08,36,15.70
2011,07,23,08,37,15.80
2011,07,23,08,38,15.80
2011,07,23,08,39,15.80
2011,07,23,08,40,15.80
2011,07,23,08,41,15.80
2011,07,23,08,42,15.90
2011,07,23,08,43,15.90
2011,07,23,08,44,15.90
2011,07,23,08,45,15.90
2011,07,23,08,46,15.90
2011,07,23,08,47,15.90
2011,07,23,08,48,16.00
2011,07,23,08,49,16.00
2011,07,23,08,50,16.10
2011,07,23,08,51,16.10
2011,07,23,08,52,16.10
2011,07,23,08,53,16.10
2011,07,23,08,54,16.10
2011,07,23,08,55,16.20
2011,07,23,08,56,16.20
2011,07,23,08,57,16.20
2011,07,23,08,58,16.20
2011,07,23,08,59,16.20
2011,07,23,09,00,16.20
2011,07,23,09,01,16.10
2011,07,23,09,02,16.10
2011,07,23,09,03,16.10
2011,07,23,09,04,16.10
2011,07,23,09,05,16.20
2011,07,23,09,06,16.20
2011,07,23,09,07,16.20
2011,07,23,09,08,16.20
2011,07,23,09,09,16.20
2011,07,23,09,10,16.20
2011,07,23,09,11,16.20
2011,07,23,09,12,16.20
2011,07,23,09,13,16.30
2011,07,23,09,14,16.30
2011,07,23,09,15,16.30
2011,07,23,09,16,16.40
2011,07,23,09,17,16.50
2011,07,23,09,18,16.50
2011,07,23,09,19,16.60
2011,07,23,09,20,16.70
2011,07,23,09,21,16.80
2011,07,23,09,22,16.90
2011,07,23,09,23,17.00
2011,07,23,09,24,17.00
2011,07,23,09,25,17.10
2011,07,23,09,26,17.20
2011,07,23,09,27,17.20
2011,07,23,09,28,17.20
2011,07,23,09,29,17.30
2011,07,23,09,30,17.30
2011,07,23,09,31,17.40
2011,07,23,09,32,17.40
2011,07,23,09,33,17.40
2011,07,23,09,34,17.50
2011,07,23,09,35,17.60
2011,07,23,09,36,17.60
2011,07,23,09,37,17.60
2011,07,23,09,38,17.60
2011,07,23,09,39,17.60
2011,07,23,09,40,17.60
2011,07,23,09,41,17.60
2011,07,23,09,42,17.60
2011,07,23,09,43,17.70
2011,07,23,09,44,17.70
2011,07,23,09,45,17.70
2011,07,23,09,46,17.70
2011,07,23,09,47,17.70
2011,07,23,09,48,17.70
2011,07,23,09,49,17.70
2011,07,23,09,50,17.70
2011,07,23,09,51,17.70
2011,07,23,09,52,17.70
2011,07,23,09,53,17.70
2011,07,23,09,54,17.70
2011,07,23,09,55,17.70
2011,07,23,09,56,17.80
2011,07,23,09,57,17.80
2011,07,23,09,58,17.90
2011,07,23,09,59,17.90
2011,07,23,10,00,18.00
2011,07,23,10,01,18.10
2011,07,23,10,02,18.30
2011,07,23,10,03,18.40
2011,07,23,10,04,18.50
2011,07,23,10,05,18.60
2011,07,23,10,06,18.60
2011,07,23,10,07,18.70
2011,07,23,10,08,18.80
2011,07,23,10,09,18.90
2011,07,23,10,10,18.90
2011,07,23,10,11,19.00
2011,07,23,10,12,19.10
2011,07,23,10,13,19.20
2011,07,23,10,14,19.20
2011,07,23,10,15,19.30
2011,07,23,10,16,19.30
2011,07,23,10,17,19.30
2011,07,23,10,18,19.30
2011,07,23,10,19,19.30
2011,07,23,10,20,19.30
2011,07,23,10,21,19.30
2011,07,23,10,22,19.20
2011,07,23,10,23,19.20
2011,07,23,10,24,19.10
2011,07,23,10,25,19.10
2011,07,23,10,26,19.10
2011,07,23,10,27,19.10
2011,07,23,10,28,19.20
2011,07,23,10,29,19.20
2011,07,23,10,30,19.30
2011,07,23,10,31,19.30
2011,07,23,10,32,19.30
2011,07,23,10,33,19.30
2011,07,23,10,34,19.30
2011,07,23,10,35,19.30
2011,07,23,10,36,19.30
2011,07,23,10,37,19.30
2011,07,23,10,38,19.40
2011,07,23,10,39,19.30
2011,07,23,10,40,19.20
2011,07,23,10,41,19.10
2011,07,23,10,42,19.00
2011,07,23,10,43,18.90
2011,07,23,10,44,18.80
2011,07,23,10,45,18.70
2011,07,23,10,46,18.70
2011,07,23,10,47,18.60
2011,07,23,10,48,18.60
2011,07,23,10,49,18.70
2011,07,23,10,50,18.70
2011,07,23,10,51,18.80
2011,07,23,10,52,18.90
2011,07,23,10,53,19.10
2011,07,23,10,54,19.20
2011,07,23,10,55,19.30
2011,07,23,10,56,19.40
2011,07,23,10,57,19.50
2011,07,23,10,58,19.60
2011,07,23,10,59,19.70
2011,07,23,11,00,19.80
2011,07,23,11,01,19.80
2011,07,23,11,02,19.90
2011,07,23,11,03,19.90
2011,07,23,11,04,19.90
2011,07,23,11,05,20.00
2011,07,23,11,06,20.10
2011,07,23,11,07,20.10
2011,07,23,11,08,20.20
2011,07,23,11,09,20.20
2011,07,23,11,10,20.20
2011,07,23,11,11,20.20
2011,07,23,11,12,20.20
2011,07,23,11,13,20.20
2011,07,23,11,14,20.30
2011,07,23,11,15,20.30
2011,07,23,11,16,20.30
2011,07,23,11,17,20.30
2011,07,23,11,18,20.40
2011,07,23,11,19,20.40
2011,07,23,11,20,20.40
2011,07,23,11,21,20.40
2011,07,23,11,22,20.30
2011,07,23,11,23,20.30
2011,07,23,11,24,20.30
2011,07,23,11,25,20.30
2011,07,23,11,26,20.20
2011,07,23,11,27,20.20
2011,07,23,11,28,20.10
2011,07,23,11,29,20.10
2011,07,23,11,30,20.00
2011,07,23,11,31,20.00
2011,07,23,11,32,20.00
2011,07,23,11,33,20.00
2011,07,23,11,34,19.90
2011,07,23,11,35,19.90
2011,07,23,11,36,19.90
2011,07,23,11,37,19.90
2011,07,23,11,38,19.90
2011,07,23,11,39,19.90
2011,07,23,11,40,19.90
2011,07,23,11,41,19.90
2011,07,23,11,42,19.90
2011,07,23,11,43,19.90
2011,07,23,11,44,19.80
2011,07,23,11,45,19.80
2011,07,23,11,46,19.70
2011,07,23,11,47,19.70
2011,07,23,11,48,19.70
2011,07,23,11,49,19.60
2011,07,23,11,50,19.60
2011,07,23,11,51,19.60
2011,07,23,11,52,19.50
2011,07,23,11,53,19.50
2011,07,23,11,54,19.50
2011,07,23,11,55,19.40
2011,07,23,11,56,19.40
2011,07,23,11,57,19.40
2011,07,23,11,58,19.40
2011,07,23,11,59,19.40
2011,07,23,12,00,19.40
2011,07,23,12,01,19.40
2011,07,23,12,02,19.30
2011,07,23,12,03,19.30
2011,07,23,12,04,19.30
2011,07,23,12,05,19.30
2011,07,23,12,06,19.30
2011,07,23,12,07,19.40
2011,07,23,12,08,19.40
2011,07,23,12,09,19.40
2011,07,23,12,10,19.50
2011,07,23,12,11,19.50
2011,07,23,12,12,19.50
2011,07,23,12,13,19.50
2011,07,23,12,14,19.60
2011,07,23,12,15,19.60
2011,07,23,12,16,19.60
2011,07,23,12,17,19.60
2011,07,23,12,18,19.70
2011,07,23,12,19,19.70
2011,07,23,12,20,19.80
2011,07,23,12,21,19.80
2011,07,23,12,22,19.80
2011,07,23,12,23,19.90
2011,07,23,12,24,19.90
2011,07,23,12,25,19.90
2011,07,23,12,26,20.00
2011,07,23,12,27,20.00
2011,07,23,12,28,20.10
2011,07,23,12,29,20.20
2011,07,23,12,30,20.30
2011,07,23,12,31,20.40
2011,07,23,12,32,20.50
2011,07,23,12,33,20.60
2011,07,23,12,34,20.70
2011,07,23,12,35,20.80
2011,07,23,12,36,20.90
2011,07,23,12,37,21.00
2011,07,23,12,38,21.00
2011,07,23,12,39,21.00
2011,07,23,12,40,21.00
2011,07,23,12,41,20.90
2011,07,23,12,42,20.90
2011,07,23,12,43,20.90
2011,07,23,12,44,20.80
2011,07,23,12,45,20.80
2011,07,23,12,46,20.80
2011,07,23,12,47,20.80
2011,07,23,12,48,20.70
2011,07,23,12,49,20.70
2011,07,23,12,50,20.70
2011,07,23,12,51,20.60
2011,07,23,12,52,20.50
2011,07,23,12,53,20.50
2011,07,23,12,54,20.40
2011,07,23,12,55,20.30
2011,07,23,12,56,20.30
2011,07,23,12,57,20.20
2011,07,23,12,58,20.20
2011,07,23,12,59,20.20
2011,07,23,13,00,20.10
2011,07,23,13,01,20.10
2011,07,23,13,02,20.10
2011,07,23,13,03,20.10
2011,07,23,13,04,20.10
2011,07,23,13,05,20.10
2011,07,23,13,06,20.10
2011,07,23,13,07,20.10
2011,07,23,13,08,20.10
2011,07,23,13,09,20.10
2011,07,23,13,10,20.10
2011,07,23,13,11,20.10
2011,07,23,13,12,20.10
2011,07,23,13,13,20.00
2011,07,23,13,14,20.00
2011,07,23,13,15,20.00
2011,07,23,13,16,20.00
2011,07,23,13,17,20.00
2011,07,23,13,18,20.00
2011,07,23,13,19,20.00
2011,07,23,13,20,20.00
2011,07,23,13,21,20.00
2011,07,23,13,22,20.00
2011,07,23,13,23,20.00
2011,07,23,13,24,20.00
2011,07,23,13,25,20.00
2011,07,23,13,26,20.00
2011,07,23,13,27,20.00
2011,07,23,13,28,20.00
2011,07,23,13,29,20.00
2011,07,23,13,30,20.10
2011,07,23,13,31,20.10
2011,07,23,13,32,20.10
2011,07,23,13,33,20.10
2011,07,23,13,34,20.10
2011,07,23,13,35,20.10
2011,07,23,13,36,20.10
2011,07,23,13,37,20.10
2011,07,23,13,38,20.10
2011,07,23,13,39,20.10
2011,07,23,13,40,20.10
2011,07,23,13,41,20.10
2011,07,23,13,42,20.10
2011,07,23,13,43,20.10
2011,07,23,13,44,20.10
2011,07,23,13,45,20.10
2011,07,23,13,46,20.20
2011,07,23,13,47,20.20
2011,07,23,13,48,20.20
2011,07,23,13,49,20.20
2011,07,23,13,50,20.20
2011,07,23,13,51,20.20
2011,07,23,13,52,20.20
2011,07,23,13,53,20.30
2011,07,23,13,54,20.30
2011,07,23,13,55,20.30
2011,07,23,13,56,20.30
2011,07,23,13,57,20.30
2011,07,23,13,58,20.40
2011,07,23,13,59,20.40
2011,07,23,14,00,20.50
2011,07,23,14,01,20.50
2011,07,23,14,02,20.60
2011,07,23,14,03,20.60
2011,07,23,14,04,20.70
2011,07,23,14,05,20.70
2011,07,23,14,06,20.80
2011,07,23,14,07,20.80
2011,07,23,14,08,20.80
2011,07,23,14,09,20.90
2011,07,23,14,10,20.90
2011,07,23,14,11,20.90
2011,07,23,14,12,20.90
2011,07,23,14,13,20.90
2011,07,23,14,14,20.90
2011,07,23,14,15,20.90
2011,07,23,14,16,20.80
2011,07,23,14,17,20.80
2011,07,23,14,18,20.80
2011,07,23,14,19,20.90
2011,07,23,14,20,20.90
2011,07,23,14,21,20.80
2011,07,23,14,22,20.60
2011,07,23,14,23,20.50
2011,07,23,14,24,20.40
2011,07,23,14,25,20.30
2011,07,23,14,26,20.20
2011,07,23,14,27,20.10
2011,07,23,14,28,19.90
2011,07,23,14,29,19.80
2011,07,23,14,30,19.80
2011,07,23,14,31,19.90
2011,07,23,14,32,19.90
2011,07,23,14,33,19.90
2011,07,23,14,34,19.90
2011,07,23,14,35,19.80
2011,07,23,14,36,19.80
2011,07,23,14,37,19.70
2011,07,23,14,38,19.50
2011,07,23,14,39,19.30
2011,07,23,14,40,19.20
2011,07,23,14,41,19.10
2011,07,23,14,42,19.10
2011,07,23,14,43,19.10
2011,07,23,14,44,19.10
2011,07,23,14,45,19.10
2011,07,23,14,46,19.10
2011,07,23,14,47,19.20
2011,07,23,14,48,19.20
2011,07,23,14,49,19.30
2011,07,23,14,50,19.40
2011,07,23,14,51,19.40
2011,07,23,14,52,19.50
2011,07,23,14,53,19.50
2011,07,23,14,54,19.60
2011,07,23,14,55,19.60
2011,07,23,14,56,19.60
2011,07,23,14,57,19.60
2011,07,23,14,58,19.70
2011,07,23,14,59,19.80
2011,07,23,15,00,19.80
2011,07,23,15,01,19.80
2011,07,23,15,02,19.90
2011,07,23,15,03,19.90
2011,07,23,15,04,19.90
2011,07,23,15,05,20.00
2011,07,23,15,06,20.00
2011,07,23,15,07,20.10
2011,07,23,15,08,20.10
2011,07,23,15,09,20.10
2011,07,23,15,10,20.10
2011,07,23,15,11,20.10
2011,07,23,15,12,20.10
2011,07,23,15,13,20.20
2011,07,23,15,14,20.20
2011,07,23,15,15,20.20
2011,07,23,15,16,20.20
2011,07,23,15,17,20.20
2011,07,23,15,18,20.20
2011,07,23,15,19,20.20
2011,07,23,15,20,20.20
2011,07,23,15,21,20.30
2011,07,23,15,22,20.30
2011,07,23,15,23,20.30
2011,07,23,15,24,20.30
2011,07,23,15,25,20.30
2011,07,23,15,26,20.30
2011,07,23,15,27,20.30
2011,07,23,15,28,20.30
2011,07,23,15,29,20.30
2011,07,23,15,30,20.30
2011,07,23,15,31,20.30
2011,07,23,15,32,20.30
2011,07,23,15,33,20.30
2011,07,23,15,34,20.30
2011,07,23,15,35,20.30
2011,07,23,15,36,20.30
2011,07,23,15,37,20.30
2011,07,23,15,38,20.40
2011,07,23,15,39,20.40
2011,07,23,15,40,20.30
2011,07,23,15,41,20.30
2011,07,23,15,42,20.30
2011,07,23,15,43,20.30
2011,07,23,15,44,20.30
2011,07,23,15,45,20.30
2011,07,23,15,46,20.30
2011,07,23,15,47,20.30
2011,07,23,15,48,20.30
2011,07,23,15,49,20.30
2011,07,23,15,50,20.30
2011,07,23,15,51,20.30
2011,07,23,15,52,20.30
2011,07,23,15,53,20.30
2011,07,23,15,54,20.30
2011,07,23,15,55,20.20
2011,07,23,15,56,20.20
2011,07,23,15,57,20.20
2011,07,23,15,58,20.10
2011,07,23,15,59,20.10
2011,07,23,16,00,20.00
2011,07,23,16,01,20.00
2011,07,23,16,02,20.00
2011,07,23,16,03,20.00
2011,07,23,16,04,19.90
2011,07,23,16,05,19.90
2011,07,23,16,06,19.90
2011,07,23,16,07,19.90
2011,07,23,16,08,19.90
2011,07,23,16,09,19.90
2011,07,23,16,10,19.90
2011,07,23,16,11,19.90
2011,07,23,16,12,20.00
2011,07,23,16,13,20.00
2011,07,23,16,14,20.10
2011,07,23,16,15,20.10
2011,07,23,16,16,20.20
2011,07,23,16,17,20.20
2011,07,23,16,18,20.20
2011,07,23,16,19,20.20
2011,07,23,16,20,20.20
2011,07,23,16,21,20.20
2011,07,23,16,22,20.20
2011,07,23,16,23,20.20
2011,07,23,16,24,20.30
2011,07,23,16,25,20.30
2011,07,23,16,26,20.40
2011,07,23,16,27,20.40
2011,07,23,16,28,20.50
2011,07,23,16,29,20.60
2011,07,23,16,30,20.60
2011,07,23,16,31,20.60
2011,07,23,16,32,20.60
2011,07,23,16,33,20.70
2011,07,23,16,34,20.70
2011,07,23,16,35,20.70
2011,07,23,16,36,20.70
2011,07,23,16,37,20.70
2011,07,23,16,38,20.70
2011,07,23,16,39,20.60
2011,07,23,16,40,20.60
2011,07,23,16,41,20.60
2011,07,23,16,42,20.70
2011,07,23,16,43,20.70
2011,07,23,16,44,20.80
2011,07,23,16,45,20.90
2011,07,23,16,46,21.00
2011,07,23,16,47,21.00
2011,07,23,16,48,21.10
2011,07,23,16,49,21.10
2011,07,23,16,50,21.10
2011,07,23,16,51,21.10
2011,07,23,16,52,21.10
2011,07,23,16,53,21.10
2011,07,23,16,54,21.10
2011,07,23,16,55,21.10
2011,07,23,16,56,21.00
2011,07,23,16,57,20.90
2011,07,23,16,58,20.90
2011,07,23,16,59,20.80
2011,07,23,17,00,20.60
2011,07,23,17,01,20.60
2011,07,23,17,02,20.50
2011,07,23,17,03,20.40
2011,07,23,17,04,20.40
2011,07,23,17,05,20.40
2011,07,23,17,06,20.40
2011,07,23,17,07,20.30
2011,07,23,17,08,20.30
2011,07,23,17,09,20.30
2011,07,23,17,10,20.30
2011,07,23,17,11,20.30
2011,07,23,17,12,20.30
2011,07,23,17,13,20.30
2011,07,23,17,14,20.30
2011,07,23,17,15,20.30
2011,07,23,17,16,20.20
2011,07,23,17,17,20.20
2011,07,23,17,18,20.20
2011,07,23,17,19,20.20